Weather History for North Myrtle Beach, SC

Change the Weather History Date:

Friday, February 15, 2013

  Actual Average Record
Temperature  
Mean Temperature 45 °F 48 °F  
Max Temperature 58 °F 57 °F 79 °F (1949)
Min Temperature 31 °F 39 °F 25 °F (1999)
Degree Days  
Heating Degree Days 20 17  
Month to date heating degree days 243 272  
Since 1 July heating degree days 1532 1740  
Cooling Degree Days 0 0  
Month to date cooling degree days 0 0  
Year to date cooling degree days 2 0  
Moisture  
Dew Point 36 °F    
Average Humidity 72    
Maximum Humidity 100    
Minimum Humidity 43    
Precipitation  
Precipitation 0.00 in 0.13 in 0.18 in (2014)
Month to date precipitation 2.30 1.73  
Year to date precipitation 2.94 5.42  
Sea Level Pressure  
Sea Level Pressure 30.05 in    
Wind  
Wind Speed 4 mph (South)    
Max Wind Speed 13 mph    
Max Gust Speed 16 mph    
Visibility 5 miles    
Events Fog    
T = Trace of Precipitation, MM = Missing Value Source: NWS Daily Summary

Daily Weather History Graph

Daily Weather History Graph

Search for Another Location

Airport:

Trip Planner

Search our weather history database for the weather conditions in past years. The results will help you decide how hot, cold, wet, or windy it might be!

Date:

Astronomy

Feb. 15, 2013 Rise Set
Actual Time 6:59 AM EST 5:59 PM EST
Civil Twilight 6:33 AM EST 6:24 PM EST
Nautical Twilight 6:04 AM EST 6:54 PM EST
Astronomical Twilight 5:35 AM EST 7:23 PM EST
Moon 9:52 AM EST (2/15) 11:38 PM EST (2/15)
Length of Visible Light 11h 51m
Length of Day
11h 00m
Waxing Crescent, 30% of the Moon is Illuminated
Feb 15
Waxing Crescent
Feb 17
First Quarter
Feb 25
Full
Mar 4
Last Quarter
Mar 11
New

Hourly Weather History & Observations

Time (EST) Temp. Windchill Dew Point Humidity Pressure Visibility Wind Dir Wind Speed Gust Speed Precip Events Conditions
12:53 AM 37.9 °F - 36.0 °F 93% 30.06 in 8.0 mi Calm Calm - N/A   Clear
1:53 AM 36.0 °F - 34.0 °F 93% 30.08 in 5.0 mi Calm Calm - N/A   Clear
2:27 AM 35.6 °F - 33.8 °F 93% 30.07 in 1.8 mi Calm Calm - N/A   Clear
2:43 AM 35.6 °F - 33.8 °F 93% 30.07 in 2.5 mi Calm Calm - N/A   Clear
2:53 AM 34.0 °F - 34.0 °F 100% 30.08 in 7.0 mi Calm Calm - N/A   Clear
3:16 AM 35.6 °F - 33.8 °F 93% 30.07 in 2.5 mi Calm Calm - N/A   Partly Cloudy
3:34 AM 33.8 °F - 33.8 °F 100% 30.07 in 3.0 mi Calm Calm - N/A   Clear
3:47 AM 33.8 °F - 33.8 °F 100% 30.06 in 2.5 mi Calm Calm - N/A   Partly Cloudy
3:53 AM 35.1 °F 32.2 °F 33.1 °F 92% 30.06 in 1.2 mi North 3.5 mph - N/A   Partly Cloudy
4:26 AM 35.6 °F 32.8 °F 33.8 °F 93% 30.05 in 3.0 mi NNE 3.5 mph - N/A   Clear
4:35 AM 35.6 °F - 33.8 °F 93% 30.05 in 1.8 mi Calm Calm - N/A   Clear
4:53 AM 34.0 °F - 34.0 °F 100% 30.05 in 0.5 mi Calm Calm - N/A Fog Fog
5:26 AM 35.6 °F - 33.8 °F 93% 30.06 in 2.5 mi Calm Calm - N/A   Clear
5:33 AM 33.8 °F - 33.8 °F 100% 30.07 in 6.0 mi Calm Calm - N/A   Clear
5:50 AM 35.6 °F - 33.8 °F 93% 30.07 in 0.8 mi Calm Calm - N/A   Mist
5:53 AM 36.0 °F - 34.0 °F 93% 30.08 in 0.5 mi Calm Calm - N/A Fog Fog
6:41 AM 35.6 °F - 33.8 °F 93% 30.08 in 0.2 mi Calm Calm - N/A Fog Fog
6:53 AM 33.1 °F - 33.1 °F 100% 30.08 in 0.2 mi Calm Calm - N/A Fog Fog
7:41 AM 35.6 °F 32.8 °F 33.8 °F 93% 30.09 in 0.5 mi NNW 3.5 mph - N/A Fog Fog
7:47 AM 35.6 °F - 33.8 °F 93% 30.09 in 2.0 mi Calm Calm - N/A   Clear
7:53 AM 37.0 °F 34.5 °F 35.1 °F 93% 30.10 in 4.0 mi NNW 3.5 mph - N/A   Clear
8:53 AM 46.9 °F - 39.0 °F 74% 30.11 in 10.0 mi North 3.5 mph - N/A   Clear
9:53 AM 53.1 °F - 39.0 °F 59% 30.10 in 10.0 mi North 4.6 mph - N/A   Clear
10:53 AM 57.0 °F - 37.0 °F 47% 30.10 in 10.0 mi NE 8.1 mph - N/A   Clear
11:53 AM 57.0 °F - 36.0 °F 45% 30.08 in 10.0 mi ESE 6.9 mph - N/A   Clear
12:53 PM 55.9 °F - 39.9 °F 55% 30.06 in 10.0 mi South 10.4 mph - N/A   Clear
1:53 PM 55.0 °F - 42.1 °F 62% 30.04 in 10.0 mi South 9.2 mph - N/A   Clear
2:53 PM 55.0 °F - 41.0 °F 59% 30.02 in 10.0 mi South 10.4 mph - N/A   Clear
3:53 PM 54.0 °F - 37.9 °F 55% 30.01 in 10.0 mi South 8.1 mph - N/A   Clear
4:53 PM 53.1 °F - 39.0 °F 59% 30.00 in 10.0 mi South 8.1 mph - N/A   Clear
5:53 PM 51.1 °F - 39.9 °F 66% 29.98 in 10.0 mi South 4.6 mph - N/A   Clear
6:53 PM 46.9 °F - 39.9 °F 77% 29.99 in 10.0 mi South 3.5 mph - N/A   Clear
7:53 PM 45.0 °F 43.5 °F 41.0 °F 86% 30.00 in 10.0 mi SW 3.5 mph - N/A   Clear
8:53 PM 44.1 °F - 41.0 °F 89% 29.99 in 10.0 mi Calm Calm - N/A   Clear
9:53 PM 39.9 °F - 39.0 °F 97% 29.99 in 8.0 mi Calm Calm - N/A   Clear
10:53 PM 37.9 °F - 37.0 °F 97% 29.99 in 6.0 mi Calm Calm - N/A   Clear
11:41 PM 39.2 °F - 37.4 °F 93% 29.97 in 1.8 mi Calm Calm - N/A   Clear
11:53 PM 37.9 °F - 37.0 °F 97% 29.97 in 2.0 mi Calm Calm - N/A   Clear